SM6LNJ-13 Weather Reports


time (UTC)temp
C
wind
direction
speed
KPH
gust
KPH
rain 1hr
cm
rain 24hr
cm
rain mn
cm
humidity
%
barometer
mb
20260507061350 8 217 0.0 1.6 0.00 0.00 0.00 79 1415.5
20260507061150 8 135 0.0 1.6 0.00 0.00 0.00 79 1415.3
20260507060950 8 203 0.0 1.6 0.00 0.00 0.00 80 1415.0
20260507060750 7 2 0.0 1.6 0.00 0.00 0.00 80 1414.4
20260507060550 7 242 0.0 3.2 0.00 0.00 0.00 80 1414.2
20260507060350 7 176 0.0 3.2 0.00 0.00 0.00 80 1414.3
20260507060150 7 68 0.0 3.2 0.00 0.00 0.00 80 1414.3
20260507055950 7 242 1.6 3.2 0.00 0.00 0.00 80 1414.0
20260507055750 7 177 0.0 3.2 0.00 0.00 0.00 81 1414.0
20260507055550 7 174 0.0 3.2 0.00 0.00 0.00 81 1413.7
20260507055350 7 301 0.0 3.2 0.00 0.00 0.00 81 1413.5
20260507055150 7 295 1.6 3.2 0.00 0.00 0.00 81 1413.2
20260507054950 7 162 0.0 3.2 0.00 0.00 0.00 81 1413.2
20260507054750 7 234 0.0 3.2 0.00 0.00 0.00 82 1413.0
20260507054550 7 198 0.0 3.2 0.00 0.00 0.00 82 1412.9
20260507054350 7 266 1.6 3.2 0.00 0.00 0.00 82 1412.6
20260507054150 7 218 1.6 3.2 0.00 0.00 0.00 83 1412.5
20260507053951 7 237 1.6 3.2 0.00 0.00 0.00 83 1412.4
20260507053750 7 252 1.6 3.2 0.00 0.00 0.00 84 1412.4
20260507053550 7 260 0.0 3.2 0.00 0.00 0.00 85 1412.5
20260507053350 7 265 0.0 3.2 0.00 0.00 0.00 85 1412.3
20260507052950 7 248 0.0 3.2 0.00 0.00 0.00 86 1412.1
20260507052750 6 263 0.0 3.2 0.00 0.00 0.00 86 1411.8
20260507052550 6 296 1.6 3.2 0.00 0.00 0.00 86 1411.5
20260507052350 6 250 0.0 1.6 0.00 0.00 0.00 87 1414.7
20260507052150 6 268 0.0 1.6 0.00 0.00 0.00 87 1411.1
20260507051950 6 226 0.0 1.6 0.00 0.00 0.00 87 1414.5
20260507051750 6 219 0.0 0.0 0.00 0.00 0.00 88 1411.2
20260507051550 6 227 0.0 0.0 0.00 0.00 0.00 88 1411.2
20260507051350 6 10 0.0 0.0 0.00 0.00 0.00 88 1410.8
20260507051150 6 193 0.0 0.0 0.00 0.00 0.00 88 1414.0
20260507050950 6 74 0.0 0.0 0.00 0.00 0.00 88 1413.9
20260507050750 6 147 0.0 0.0 0.00 0.00 0.00 88 1413.7
20260507050550 6 242 0.0 0.0 0.00 0.00 0.00 88 1413.1
20260507050350 6 163 0.0 0.0 0.00 0.00 0.00 88 1412.9
20260507050150 5 23 0.0 0.0 0.00 0.00 0.00 88 1412.6
20260507045950 5 79 0.0 0.0 0.00 0.00 0.00 88 1411.8
20260507045750 5 92 0.0 0.0 0.00 0.00 0.00 88 1411.2
20260507045550 5 90 0.0 0.0 0.00 0.00 0.00 88 1410.4
20260507045350 4 90 0.0 0.0 0.00 0.00 0.00 88 1409.0
20260507045150 3 80 0.0 0.0 0.00 0.00 0.00 88 1411.1
20260507044950 3 45 0.0 0.0 0.00 0.00 0.00 88 1410.0
20260507044750 2 86 0.0 0.0 0.00 0.00 0.00 88 1412.8
20260507044550 2 90 0.0 0.0 0.00 0.00 0.00 88 1415.8
20260507044350 2 108 0.0 0.0 0.00 0.00 0.00 88 1418.9
20260507044151 2 91 0.0 0.0 0.00 0.00 0.00 88 1425.4
20260507043950 2 130 0.0 0.0 0.00 0.00 0.00 88 1428.6
20260507043750 2 101 0.0 0.0 0.00 0.00 0.00 88 1431.6
20260507043550 2 45 0.0 0.0 0.00 0.00 0.00 88 1435.0
20260507043350 2 124 0.0 0.0 0.00 0.00 0.00 88 1434.8
20260507043150 2 200 0.0 0.0 0.00 0.00 0.00 88 1441.4
20260507042950 2 96 0.0 0.0 0.00 0.00 0.00 88 1444.5
20260507042750 1 90 0.0 0.0 0.00 0.00 0.00 88 1447.8
20260507042550 1 90 0.0 0.0 0.00 0.00 0.00 88 1447.7
20260507042350 1 90 0.0 0.0 0.00 0.00 0.00 88 1447.6
20260507042150 1 90 0.0 0.0 0.00 0.00 0.00 88 1451.0
20260507041950 1 90 0.0 0.0 0.00 0.00 0.00 88 1450.9
20260507041750 1 90 0.0 0.0 0.00 0.00 0.00 88 1454.1
20260507041550 1 90 0.0 0.0 0.00 0.00 0.00 88 1457.5
20260507041350 1 90 0.0 0.0 0.00 0.00 0.00 88 1457.3
20260507041150 1 90 0.0 0.0 0.00 0.00 0.00 87 1460.6
20260507040950 1 96 0.0 0.0 0.00 0.00 0.00 87 1460.4
20260507040750 1 93 0.0 0.0 0.00 0.00 0.00 87 1463.6
20260507040550 1 67 0.0 0.0 0.00 0.00 0.00 87 1463.6
20260507040350 1 90 0.0 0.0 0.00 0.00 0.00 87 1463.7
20260507040150 1 90 0.0 0.0 0.00 0.00 0.00 87 1463.6
20260507035950 1 91 0.0 0.0 0.00 0.00 0.00 87 1463.5
20260507035750 1 97 0.0 0.0 0.00 0.00 0.00 87 1466.7
20260507035550 1 93 0.0 0.0 0.00 0.00 0.00 87 1466.5
20260507035350 1 92 0.0 0.0 0.00 0.00 0.00 87 1469.8
20260507035150 1 90 0.0 0.0 0.00 0.00 0.00 87 1469.7
20260507034950 1 90 0.0 0.0 0.00 0.00 0.00 87 1469.6
20260507034750 1 98 0.0 0.0 0.00 0.00 0.00 87 1469.6
20260507034550 1 100 0.0 0.0 0.00 0.00 0.00 87 1469.7
20260507034350 1 95 0.0 0.0 0.00 0.00 0.00 87 1469.7
20260507034150 1 90 0.0 0.0 0.00 0.00 0.00 87 1469.6
20260507033950 1 90 0.0 0.0 0.00 0.00 0.00 87 1469.6
20260507033750 1 72 0.0 0.0 0.00 0.00 0.00 87 1469.6
20260507033550 1 96 0.0 0.0 0.00 0.00 0.00 86 1469.6
20260507033350 1 115 0.0 0.0 0.00 0.00 0.00 86 1469.6
20260507033150 1 90 0.0 0.0 0.00 0.00 0.00 86 1469.6
20260507032950 1 90 0.0 0.0 0.00 0.00 0.00 86 1469.7
20260507032750 1 91 0.0 0.0 0.00 0.00 0.00 86 1469.8
20260507032550 1 66 0.0 0.0 0.00 0.00 0.00 86 1469.9
20260507032350 1 94 0.0 0.0 0.00 0.00 0.00 86 1466.5
20260507032150 1 93 0.0 0.0 0.00 0.00 0.00 86 1466.5
20260507031950 1 96 0.0 0.0 0.00 0.00 0.00 86 1469.7
20260507031750 1 135 0.0 0.0 0.00 0.00 0.00 86 1469.6
20260507031550 1 105 0.0 0.0 0.00 0.00 0.00 86 1469.6
20260507031350 1 109 0.0 0.0 0.00 0.00 0.00 86 1472.8
20260507031150 1 136 0.0 0.0 0.00 0.00 0.00 86 1472.6
20260507030950 1 93 0.0 0.0 0.00 0.00 0.00 86 1472.6
20260507030750 1 90 0.0 0.0 0.00 0.00 0.00 85 1472.9
20260507030550 1 99 0.0 0.0 0.00 0.00 0.00 85 1469.6
20260507030350 1 99 0.0 0.0 0.00 0.00 0.00 85 1469.6
20260507030150 1 90 0.0 0.0 0.00 0.00 0.00 85 1469.8
20260507025950 1 99 0.0 0.0 0.00 0.00 0.00 85 1469.8
20260507025750 1 67 0.0 0.0 0.00 0.00 0.00 85 1470.0
20260507025550 1 110 0.0 0.0 0.00 0.00 0.00 85 1466.8
20260507025350 1 114 0.0 0.0 0.00 0.00 0.00 85 1466.8
20260507025150 1 96 0.0 1.6 0.00 0.00 0.00 85 1466.9
20260507024950 1 117 0.0 1.6 0.00 0.00 0.00 85 1466.8
20260507024750 1 106 0.0 1.6 0.00 0.00 0.00 85 1466.8
20260507024550 1 93 0.0 1.6 0.00 0.00 0.00 85 1466.9
20260507024350 1 107 0.0 1.6 0.00 0.00 0.00 85 1467.0
20260507024150 1 103 0.0 0.0 0.00 0.00 0.00 84 1463.6
20260507023950 1 88 0.0 0.0 0.00 0.00 0.00 84 1463.8
20260507023750 1 60 0.0 0.0 0.00 0.00 0.00 84 1460.6
20260507023550 1 109 0.0 1.6 0.00 0.00 0.00 84 1460.6
20260507023350 1 148 0.0 1.6 0.00 0.00 0.00 84 1463.9
20260507023150 1 197 0.0 1.6 0.00 0.00 0.00 84 1463.9
20260507022950 1 99 0.0 1.6 0.00 0.00 0.00 84 1463.8
20260507022750 1 99 0.0 1.6 0.00 0.00 0.00 84 1463.9
20260507022550 1 90 0.0 0.0 0.00 0.00 0.00 84 1463.9
20260507022350 1 93 0.0 0.0 0.00 0.00 0.00 84 1460.6
20260507022150 1 75 0.0 0.0 0.00 0.00 0.00 83 1460.8
20260507021950 1 50 0.0 0.0 0.00 0.00 0.00 83 1457.6
20260507021750 1 85 0.0 0.0 0.00 0.00 0.00 83 1454.4
20260507021550 1 52 0.0 0.0 0.00 0.00 0.00 83 1454.5
20260507021350 2 87 0.0 0.0 0.00 0.00 0.00 83 1451.3
20260507021150 2 159 0.0 0.0 0.00 0.00 0.00 83 1448.0
20260507020950 2 172 0.0 1.6 0.00 0.00 0.00 83 1448.1
20260507020750 2 126 0.0 1.6 0.00 0.00 0.00 83 1448.1
20260507020550 2 107 0.0 1.6 0.00 0.00 0.00 83 1448.2
20260507020350 2 111 0.0 1.6 0.00 0.00 0.00 83 1444.9
20260507020150 2 100 0.0 1.6 0.00 0.00 0.00 83 1445.0
20260507015950 2 126 0.0 1.6 0.00 0.00 0.00 82 1445.0
20260507015750 2 165 0.0 1.6 0.00 0.00 0.00 82 1445.0
20260507015550 2 100 0.0 1.6 0.00 0.00 0.00 82 1441.8
20260507015350 2 94 0.0 1.6 0.00 0.00 0.00 82 1438.6
20260507015150 2 108 0.0 1.6 0.00 0.00 0.00 82 1438.5
20260507014950 2 189 0.0 0.0 0.00 0.00 0.00 82 1441.7
20260507014750 2 242 0.0 0.0 0.00 0.00 0.00 82 1441.8
20260507014550 2 106 0.0 0.0 0.00 0.00 0.00 81 1438.5
20260507014350 2 172 0.0 1.6 0.00 0.00 0.00 81 1441.8
20260507014150 2 198 0.0 1.6 0.00 0.00 0.00 81 1441.9
20260507013950 2 94 0.0 1.6 0.00 0.00 0.00 81 1438.5
20260507013750 2 110 0.0 1.6 0.00 0.00 0.00 81 1438.6
20260507013550 2 103 0.0 1.6 0.00 0.00 0.00 81 1435.4
20260507013350 2 110 0.0 1.6 0.00 0.00 0.00 80 1432.1
20260507013150 2 109 0.0 1.6 0.00 0.00 0.00 80 1432.3
20260507012950 2 105 0.0 1.6 0.00 0.00 0.00 80 1432.3
20260507012750 2 103 0.0 0.0 0.00 0.00 0.00 80 1432.2
20260507012550 2 108 0.0 0.0 0.00 0.00 0.00 80 1432.2
20260507012350 2 103 0.0 0.0 0.00 0.00 0.00 79 1432.2
20260507012150 2 127 0.0 0.0 0.00 0.00 0.00 79 1435.4
20260507011950 2 102 0.0 0.0 0.00 0.00 0.00 79 1432.1
20260507011750 2 97 0.0 0.0 0.00 0.00 0.00 79 1432.2
20260507011550 2 100 0.0 0.0 0.00 0.00 0.00 79 1432.2
20260507011350 2 115 0.0 1.6 0.00 0.00 0.00 78 1432.3
20260507011150 2 94 0.0 1.6 0.00 0.00 0.00 78 1429.0
20260507010950 2 102 0.0 1.6 0.00 0.00 0.00 78 1425.8
20260507010750 2 101 0.0 1.6 0.00 0.00 0.00 78 1425.9
20260507010550 2 94 0.0 1.6 0.00 0.00 0.00 77 1422.7
20260507010350 2 118 0.0 1.6 0.00 0.00 0.00 77 1422.9
20260507010150 2 93 0.0 1.6 0.00 0.00 0.00 77 1422.8
20260507005950 2 49 0.0 1.6 0.00 0.00 0.00 77 1422.6
20260507005750 2 54 0.0 1.6 0.00 0.00 0.00 76 1422.8
20260507005550 2 92 0.0 0.0 0.00 0.00 0.00 76 1422.9
20260507005350 2 93 0.0 0.0 0.00 0.00 0.00 76 1422.9
20260507005150 2 91 0.0 0.0 0.00 0.00 0.00 76 1422.9
20260507004950 2 105 0.0 0.0 0.00 0.00 0.00 76 1419.5
20260507004750 2 79 0.0 0.0 0.00 0.00 0.00 75 1419.6
20260507004350 3 76 0.0 1.6 0.00 0.00 0.00 75 1416.5
20260507004150 3 90 0.0 1.6 0.00 0.00 0.00 75 1416.8
20260507003950 3 91 0.0 1.6 0.00 0.00 0.00 75 1413.7
20260507003750 3 97 0.0 1.6 0.00 0.00 0.00 75 1413.8
20260507003550 3 94 0.0 1.6 0.00 0.00 0.00 75 1413.9
20260507003350 3 97 0.0 1.6 0.00 0.00 0.00 75 1414.1
20260507003150 3 94 0.0 1.6 0.00 0.00 0.00 74 1414.2
20260507002950 3 90 0.0 1.6 0.00 0.00 0.00 74 1414.4
20260507002750 3 95 0.0 1.6 0.00 0.00 0.00 74 1411.1
20260507002550 3 91 0.0 1.6 0.00 0.00 0.00 74 1411.2
20260507002350 3 97 0.0 0.0 0.00 0.00 0.00 74 1411.3
20260507002150 3 92 0.0 0.0 0.00 0.00 0.00 74 1411.4
20260507001950 3 88 0.0 0.0 0.00 0.00 0.00 74 1411.7
20260507001750 3 76 0.0 1.6 0.00 0.00 0.00 73 1412.2
20260507001550 4 90 0.0 1.6 0.00 0.00 0.00 73 1412.6
20260507001350 4 93 0.0 1.6 0.00 0.00 0.00 73 1412.9
20260507001150 4 92 0.0 1.6 0.00 0.00 0.00 73 1413.1
20260507000950 4 92 0.0 0.0 0.00 0.00 0.00 73 1413.4
20260507000750 4 101 0.0 1.6 0.00 0.00 0.00 73 1413.5
20260507000550 4 100 0.0 1.6 0.00 0.00 0.00 73 1413.5
20260507000350 4 119 0.0 1.6 0.00 0.00 0.00 72 1413.5
20260507000150 5 195 0.0 1.6 0.00 0.00 0.00 72 1413.8
20260506235950 5 114 0.0 1.6 0.00 0.00 0.00 72 1414.3
20260506235750 5 132 0.0 1.6 0.00 0.00 0.00 72 1410.9
20260506235550 5 84 0.0 1.6 0.00 0.00 0.00 71 1411.1
20260506235350 5 148 0.0 3.2 0.00 0.00 0.00 71 1411.5
20260506235150 5 167 0.0 3.2 0.00 0.00 0.00 71 1412.0
20260506234950 5 92 0.0 3.2 0.00 0.00 0.00 70 1412.5
20260506234750 6 175 0.0 3.2 0.00 0.00 0.00 70 1412.9
20260506234550 6 190 0.0 3.2 0.00 0.00 0.00 69 1413.5
20260506234350 6 136 0.0 3.2 0.00 0.00 0.00 69 1414.0
20260506234150 6 103 0.0 3.2 0.00 0.00 0.00 69 1414.3
20260506233950 6 161 0.0 3.2 0.00 0.00 0.00 69 1414.6
20260506233750 6 172 0.0 4.8 0.00 0.00 0.00 69 1414.8
20260506233550 6 230 0.0 4.8 0.00 0.00 0.00 69 1415.1
20260506233350 6 170 0.0 4.8 0.00 0.00 0.00 69 1415.3
20260506233150 6 190 1.6 4.8 0.00 0.00 0.00 70 1415.3
20260506232950 6 211 1.6 4.8 0.00 0.00 0.00 70 1415.1
20260506232750 6 210 1.6 3.2 0.00 0.00 0.00 71 1415.0
20260506232550 6 230 0.0 3.2 0.00 0.00 0.00 71 1415.1
20260506232350 6 170 0.0 3.2 0.00 0.00 0.00 71 1415.2
20260506232150 6 153 0.0 6.4 0.00 0.00 0.00 71 1415.4
20260506231950 7 204 1.6 6.4 0.00 0.00 0.00 71 1415.5
20260506231750 7 165 0.0 6.4 0.00 0.00 0.00 71 1415.6
20260506231550 7 205 1.6 6.4 0.00 0.00 0.00 71 1415.6
20260506231350 7 166 1.6 6.4 0.00 0.00 0.00 71 1415.5
20260506231150 6 203 1.6 6.4 0.00 0.00 0.00 71 1415.4
20260506230951 7 193 0.0 8.0 0.00 0.00 0.00 71 1415.6
20260506230750 7 151 0.0 8.0 0.00 0.00 0.00 71 1415.9
20260506230550 7 183 0.0 8.0 0.00 0.00 0.00 71 1416.2
20260506230350 7 198 1.6 8.0 0.00 0.00 0.00 70 1416.2
20260506230150 7 188 1.6 4.8 0.00 0.00 0.00 70 1416.2
20260506225950 7 197 1.6 6.4 0.00 0.00 0.00 70 1416.3
20260506225750 7 198 1.6 6.4 0.00 0.00 0.00 70 1416.4
20260506225550 7 192 1.6 6.4 0.00 0.00 0.00 70 1416.4
20260506225350 7 225 1.6 6.4 0.00 0.00 0.00 70 1416.3
20260506225150 7 222 1.6 6.4 0.00 0.00 0.00 69 1416.1
20260506224950 7 167 0.0 6.4 0.00 0.00 0.00 68 1416.0
20260506224750 7 216 1.6 6.4 0.00 0.00 0.00 68 1416.0
20260506224550 7 217 1.6 6.4 0.00 0.00 0.00 69 1416.0
20260506224350 7 207 1.6 6.4 0.00 0.00 0.00 69 1415.9
20260506224150 7 247 1.6 6.4 0.00 0.00 0.00 69 1415.8
20260506223950 7 220 1.6 4.8 0.00 0.00 0.00 68 1415.6
20260506223750 7 155 0.0 3.2 0.00 0.00 0.00 68 1415.7
20260506223550 7 104 0.0 3.2 0.00 0.00 0.00 68 1415.7
20260506223350 7 204 1.6 4.8 0.00 0.00 0.00 68 1415.8
20260506223150 7 191 1.6 6.4 0.00 0.00 0.00 68 1415.9
20260506222950 7 173 1.6 6.4 0.00 0.00 0.00 68 1416.0
20260506222750 7 178 0.0 6.4 0.00 0.00 0.00 68 1416.2
20260506222550 7 194 1.6 6.4 0.00 0.00 0.00 68 1416.2
20260506222352 7 176 1.6 6.4 0.00 0.00 0.00 67 1416.1
20260506222150 7 225 1.6 4.8 0.00 0.00 0.00 67 1416.1
20260506221951 7 214 1.6 4.8 0.00 0.00 0.00 67 1416.1
20260506221750 7 196 1.6 6.4 0.00 0.00 0.00 67 1416.2
20260506221550 7 198 1.6 8.0 0.00 0.00 0.00 67 1416.3
20260506221350 7 206 1.6 8.0 0.00 0.00 0.00 67 1416.3
20260506221150 7 179 1.6 8.0 0.00 0.00 0.00 67 1416.4
20260506220950 7 199 3.2 8.0 0.00 0.00 0.00 67 1413.2
20260506220750 7 174 1.6 6.4 0.00 0.00 0.00 67 1416.6
20260506220550 7 231 1.6 6.4 0.00 0.00 0.00 67 1413.2
20260506220350 7 274 3.2 6.4 0.00 0.00 0.00 67 1416.6
20260506220150 7 197 1.6 6.4 0.00 0.00 0.00 66 1416.5
20260506215950 7 198 1.6 6.4 0.00 0.00 0.00 66 1416.5
20260506215750 7 193 1.6 6.4 0.00 0.00 0.00 66 1413.2
20260506215550 7 221 3.2 6.4 0.00 0.00 0.00 66 1416.5
20260506215350 7 187 1.6 6.4 0.00 0.00 0.00 65 1416.5
20260506215150 7 192 1.6 6.4 0.00 0.00 0.00 65 1413.2
20260506214950 7 180 1.6 6.4 0.00 0.00 0.00 65 1413.3
20260506214750 7 150 1.6 6.4 0.00 0.00 0.00 64 1413.3
20260506214550 7 183 1.6 6.4 0.00 0.00 0.00 64 1413.4
20260506214350 7 198 1.6 6.4 0.00 0.00 0.00 63 1416.8
20260506214150 7 216 1.6 6.4 0.00 0.00 0.00 63 1416.9
20260506213950 7 195 1.6 9.7 0.00 0.00 0.00 63 1417.0
20260506213750 7 198 1.6 9.7 0.00 0.00 0.00 63 1413.6
20260506213550 7 164 1.6 9.7 0.00 0.00 0.00 63 1417.0
20260506213350 7 179 1.6 9.7 0.00 0.00 0.00 62 1413.6
20260506213150 7 203 1.6 8.0 0.00 0.00 0.00 62 1413.6
20260506212950 7 196 1.6 8.0 0.00 0.00 0.00 61 1413.6
20260506212750 7 209 1.6 8.0 0.00 0.00 0.00 61 1413.6
20260506212550 7 241 3.2 8.0 0.00 0.00 0.00 61 1413.7
20260506212350 7 163 1.6 8.0 0.00 0.00 0.00 61 1413.8
20260506212151 7 186 1.6 8.0 0.00 0.00 0.00 60 1413.8
20260506211950 7 256 3.2 8.0 0.00 0.00 0.00 60 1413.8
20260506211751 7 204 1.6 8.0 0.00 0.00 0.00 59 1417.1
20260506211551 7 195 1.6 8.0 0.00 0.00 0.00 59 1413.7
20260506211350 7 145 1.6 8.0 0.00 0.00 0.00 59 1413.8
20260506211150 7 178 1.6 6.4 0.00 0.00 0.00 58 1413.9
20260506210950 7 212 1.6 6.4 0.00 0.00 0.00 58 1414.0
20260506210750 7 211 3.2 6.4 0.00 0.00 0.00 57 1414.0
20260506210550 7 201 3.2 6.4 0.00 0.00 0.00 57 1414.1
20260506210350 7 197 1.6 6.4 0.00 0.00 0.00 57 1414.1
20260506210150 7 219 1.6 6.4 0.00 0.00 0.00 57 1414.1
20260506205950 7 205 1.6 6.4 0.00 0.00 0.00 56 1414.2
20260506205750 7 218 3.2 9.7 0.00 0.00 0.00 56 1414.2
20260506205550 7 244 3.2 9.7 0.00 0.00 0.00 56 1414.2
20260506205350 7 179 1.6 9.7 0.00 0.00 0.00 56 1414.3
20260506205150 7 210 3.2 9.7 0.00 0.00 0.00 56 1414.3
20260506204950 7 194 3.2 9.7 0.00 0.00 0.00 56 1414.3
20260506204750 7 217 1.6 6.4 0.00 0.00 0.00 55 1414.2
20260506204550 7 200 1.6 6.4 0.00 0.00 0.00 55 1414.3
20260506204350 7 249 1.6 8.0 0.00 0.00 0.00 55 1414.3
20260506204150 7 175 1.6 8.0 0.00 0.00 0.00 56 1414.3
20260506203950 7 214 1.6 8.0 0.00 0.00 0.00 55 1414.3
20260506203750 7 182 1.6 8.0 0.00 0.00 0.00 55 1414.3
20260506203550 7 203 1.6 8.0 0.00 0.00 0.00 55 1414.4
20260506203350 7 215 1.6 8.0 0.00 0.00 0.00 56 1414.5
20260506203150 7 203 1.6 8.0 0.00 0.00 0.00 56 1414.5
20260506202950 7 239 3.2 8.0 0.00 0.00 0.00 56 1414.5
20260506202750 7 169 1.6 9.7 0.00 0.00 0.00 56 1414.5
20260506202550 7 215 3.2 9.7 0.00 0.00 0.00 57 1414.6
20260506202350 7 148 1.6 9.7 0.00 0.00 0.00 56 1414.5
20260506202150 7 233 3.2 9.7 0.00 0.00 0.00 55 1414.6
20260506201950 7 271 3.2 9.7 0.00 0.00 0.00 56 1414.4
20260506201750 7 206 1.6 6.4 0.00 0.00 0.00 57 1414.4
20260506201550 7 200 1.6 6.4 0.00 0.00 0.00 56 1414.3
20260506201350 7 215 1.6 6.4 0.00 0.00 0.00 56 1414.2
20260506201150 7 151 0.0 6.4 0.00 0.00 0.00 56 1414.3
20260506200950 7 165 1.6 6.4 0.00 0.00 0.00 56 1414.3
20260506200750 7 188 1.6 4.8 0.00 0.00 0.00 57 1414.4
20260506200550 7 215 1.6 4.8 0.00 0.00 0.00 56 1414.5
20260506200350 7 236 1.6 4.8 0.00 0.00 0.00 55 1414.5
20260506200150 7 162 1.6 4.8 0.00 0.00 0.00 55 1414.5
20260506195750 7 190 1.6 6.4 0.00 0.00 0.00 56 1414.5
20260506195550 8 180 1.6 8.0 0.00 0.00 0.00 57 1414.6
20260506195350 8 198 1.6 8.0 0.00 0.00 0.00 57 1414.8
20260506195150 8 201 1.6 8.0 0.00 0.00 0.00 57 1415.0
20260506194950 8 208 1.6 8.0 0.00 0.00 0.00 56 1415.0
20260506194750 8 220 1.6 6.4 0.00 0.00 0.00 56 1415.0
20260506194550 8 187 1.6 6.4 0.00 0.00 0.00 57 1415.1
20260506194350 8 204 1.6 6.4 0.00 0.00 0.00 56 1415.1
20260506194150 8 196 3.2 8.0 0.00 0.00 0.00 55 1415.1
20260506193950 8 206 3.2 8.0 0.00 0.00 0.00 56 1415.0
20260506193750 8 195 1.6 8.0 0.00 0.00 0.00 56 1415.0
20260506193550 8 178 1.6 8.0 0.00 0.00 0.00 56 1415.1
20260506193350 8 192 1.6 8.0 0.00 0.00 0.00 56 1415.1
20260506193152 8 217 1.6 8.0 0.00 0.00 0.00 57 1415.2
20260506193145 8 215 3.2 8.0 0.00 0.00 0.00 57 1415.1
20260506192750 8 217 1.6 6.4 0.00 0.00 0.00 57 1415.1
20260506192550 8 193 1.6 8.0 0.00 0.00 0.00 57 1415.2
20260506192350 8 204 1.6 8.0 0.00 0.00 0.00 57 1415.3
20260506192150 8 179 1.6 8.0 0.00 0.00 0.00 57 1415.4
20260506191950 8 214 3.2 8.0 0.00 0.00 0.00 57 1415.5
20260506191750 8 191 1.6 8.0 0.00 0.00 0.00 57 1415.4
20260506191550 8 225 1.6 6.4 0.00 0.00 0.00 58 1415.5
20260506191350 8 195 1.6 8.0 0.00 0.00 0.00 58 1415.7
20260506191150 8 214 1.6 12.9 0.00 0.00 0.00 57 1415.9
20260506190950 8 229 3.2 12.9 0.00 0.00 0.00 57 1416.0
20260506190750 8 206 3.2 12.9 0.00 0.00 0.00 57 1416.1
20260506190550 8 177 1.6 12.9 0.00 0.00 0.00 58 1416.1
20260506190350 8 198 3.2 12.9 0.00 0.00 0.00 58 1416.1
20260506190150 8 189 3.2 11.3 0.00 0.00 0.00 58 1416.2
20260506185950 8 201 1.6 11.3 0.00 0.00 0.00 58 1416.3
20260506185750 8 222 3.2 11.3 0.00 0.00 0.00 57 1416.4
20260506185550 8 190 1.6 9.7 0.00 0.00 0.00 58 1416.5
20260506185350 8 237 1.6 9.7 0.00 0.00 0.00 58 1416.6
20260506185150 8 202 1.6 8.0 0.00 0.00 0.00 58 1416.7
20260506184950 8 188 1.6 8.0 0.00 0.00 0.00 57 1416.7
20260506184750 8 200 1.6 8.0 0.00 0.00 0.00 57 1416.8
20260506184550 8 216 1.6 9.7 0.00 0.00 0.00 57 1416.9
20260506184350 8 208 1.6 9.7 0.00 0.00 0.00 57 1417.1
20260506184150 9 207 1.6 9.7 0.00 0.00 0.00 56 1417.3
20260506183950 9 222 1.6 9.7 0.00 0.00 0.00 55 1417.4
20260506183750 9 205 1.6 9.7 0.00 0.00 0.00 55 1417.6
20260506183550 9 178 1.6 6.4 0.00 0.00 0.00 54 1417.9
20260506183350 9 192 1.6 6.4 0.00 0.00 0.00 53 1418.3
20260506183150 10 206 1.6 6.4 0.00 0.00 0.00 53 1418.6
20260506182950 10 200 1.6 6.4 0.00 0.00 0.00 52 1418.9
20260506182750 10 182 0.0 4.8 0.00 0.00 0.00 51 1419.3
20260506182550 10 126 1.6 4.8 0.00 0.00 0.00 50 1419.9
20260506182350 10 194 0.0 6.4 0.00 0.00 0.00 49 1420.6
20260506182150 11 163 1.6 6.4 0.00 0.00 0.00 48 1421.5
20260506181950 11 183 0.0 6.4 0.00 0.00 0.00 45 1423.0
20260506181750 12 194 1.6 6.4 0.00 0.00 0.00 43 1425.0
20260506181550 13 167 1.6 6.4 0.00 0.00 0.00 41 1427.9
20260506181350 14 204 1.6 6.4 0.00 0.00 0.00 40 1430.1
20260506181150 15 172 1.6 6.4 0.00 0.00 0.00 40 1430.8
20260506180950 15 229 1.6 6.4 0.00 0.00 0.00 40 1431.5
20260506180750 15 213 0.0 6.4 0.00 0.00 0.00 40 1432.3
20260506180550 15 201 1.6 6.4 0.00 0.00 0.00 40 1432.4
20260506180350 15 214 0.0 6.4 0.00 0.00 0.00 40 1432.8
20260506180150 16 130 0.0 6.4 0.00 0.00 0.00 40 1433.1
20260506175950 16 198 1.6 6.4 0.00 0.00 0.00 39 1433.6
20260506175750 16 155 0.0 6.4 0.00 0.00 0.00 40 1433.4
20260506175551 16 188 1.6 6.4 0.00 0.00 0.00 40 1433.0
20260506175350 15 195 1.6 6.4 0.00 0.00 0.00 40 1432.5
20260506175150 15 176 1.6 6.4 0.00 0.00 0.00 41 1432.0
20260506174950 15 224 3.2 6.4 0.00 0.00 0.00 41 1432.1
20260506174750 15 178 1.6 8.0 0.00 0.00 0.00 41 1432.0
20260506174550 15 189 1.6 8.0 0.00 0.00 0.00 42 1431.5
20260506174350 15 236 1.6 8.0 0.00 0.00 0.00 43 1430.9
20260506174150 15 231 3.2 8.0 0.00 0.00 0.00 42 1430.5
20260506173950 15 212 1.6 6.4 0.00 0.00 0.00 42 1431.0
20260506173750 15 190 1.6 6.4 0.00 0.00 0.00 40 1432.0
20260506173550 16 214 1.6 6.4 0.00 0.00 0.00 40 1433.8
20260506173350 16 240 1.6 6.4 0.00 0.00 0.00 40 1434.9
20260506173150 17 201 1.6 6.4 0.00 0.00 0.00 41 1436.3
20260506172950 17 199 1.6 6.4 0.00 0.00 0.00 42 1435.9
20260506172750 16 172 1.6 6.4 0.00 0.00 0.00 43 1435.1
20260506172550 16 202 1.6 6.4 0.00 0.00 0.00 43 1434.2
20260506172350 16 205 1.6 6.4 0.00 0.00 0.00 43 1434.3
20260506172150 16 183 1.6 9.7 0.00 0.00 0.00 43 1434.3
20260506171950 16 197 1.6 9.7 0.00 0.00 0.00 43 1434.0
20260506171750 16 199 3.2 9.7 0.00 0.00 0.00 43 1433.7
20260506171550 16 194 1.6 9.7 0.00 0.00 0.00 43 1433.7
20260506171352 16 221 3.2 9.7 0.00 0.00 0.00 43 1434.4
20260506171150 16 226 3.2 9.7 0.00 0.00 0.00 43 1434.0
20260506170950 16 215 3.2 9.7 0.00 0.00 0.00 43 1434.1
20260506170750 16 187 1.6 9.7 0.00 0.00 0.00 43 1434.2
20260506170550 16 195 3.2 9.7 0.00 0.00 0.00 43 1433.8
20260506170350 16 189 3.2 9.7 0.00 0.00 0.00 43 1434.3
20260506170150 16 213 1.6 9.7 0.00 0.00 0.00 43 1434.4
20260506165950 16 245 3.2 9.7 0.00 0.00 0.00 43 1433.8
20260506165750 16 224 3.2 12.9 0.00 0.00 0.00 43 1433.9
20260506165550 16 239 3.2 12.9 0.00 0.00 0.00 43 1434.5
20260506165350 16 207 3.2 12.9 0.00 0.00 0.00 44 1434.7
20260506165150 16 182 3.2 12.9 0.00 0.00 0.00 44 1434.1
20260506164950 16 211 3.2 11.3 0.00 0.00 0.00 45 1434.5
20260506164750 16 216 3.2 11.3 0.00 0.00 0.00 45 1434.0
20260506164550 16 190 1.6 12.9 0.00 0.00 0.00 45 1433.4
20260506164350 15 192 3.2 12.9 0.00 0.00 0.00 44 1432.4
20260506164150 16 199 3.2 12.9 0.00 0.00 0.00 43 1433.1
20260506163950 16 217 4.8 12.9 0.00 0.00 0.00 43 1433.4
20260506163750 16 195 1.6 11.3 0.00 0.00 0.00 45 1435.0
20260506163550 16 214 3.2 11.3 0.00 0.00 0.00 45 1435.4
20260506163350 16 194 3.2 11.3 0.00 0.00 0.00 44 1435.4
20260506163150 17 211 1.6 11.3 0.00 0.00 0.00 46 1435.8
20260506162950 16 195 1.6 11.3 0.00 0.00 0.00 46 1435.1
20260506162750 16 207 3.2 11.3 0.00 0.00 0.00 46 1435.1
20260506162550 16 228 1.6 6.4 0.00 0.00 0.00 47 1435.0
20260506162350 16 198 1.6 6.4 0.00 0.00 0.00 46 1434.4
20260506162150 16 201 3.2 8.0 0.00 0.00 0.00 46 1434.3
20260506161950 16 203 1.6 8.0 0.00 0.00 0.00 47 1435.2
20260506161750 16 161 1.6 9.7 0.00 0.00 0.00 48 1434.9
20260506161550 16 184 1.6 9.7 0.00 0.00 0.00 49 1433.9
20260506161350 16 192 1.6 9.7 0.00 0.00 0.00 50 1433.1
20260506161150 15 228 3.2 9.7 0.00 0.00 0.00 50 1432.6
20260506160950 15 195 1.6 9.7 0.00 0.00 0.00 49 1432.8
20260506160750 15 204 3.2 9.7 0.00 0.00 0.00 50 1432.7
20260506160550 15 214 1.6 9.7 0.00 0.00 0.00 50 1432.8
20260506160350 15 214 1.6 9.7 0.00 0.00 0.00 50 1432.2
20260506160150 15 220 3.2 9.7 0.00 0.00 0.00 50 1431.7
20260506155950 15 209 3.2 9.7 0.00 0.00 0.00 50 1431.4
20260506155750 15 229 4.8 9.7 0.00 0.00 0.00 49 1430.9
20260506155550 15 197 1.6 9.7 0.00 0.00 0.00 50 1431.0
20260506155350 15 233 3.2 9.7 0.00 0.00 0.00 49 1430.9
20260506155150 15 202 1.6 6.4 0.00 0.00 0.00 49 1431.7
20260506154950 15 184 1.6 6.4 0.00 0.00 0.00 49 1432.0
20260506154750 15 209 1.6 6.4 0.00 0.00 0.00 48 1432.0
20260506154550 15 206 1.6 6.4 0.00 0.00 0.00 48 1432.3
20260506154350 15 198 1.6 6.4 0.00 0.00 0.00 48 1432.7
20260506154150 15 198 1.6 8.0 0.00 0.00 0.00 49 1432.5
20260506153950 15 206 1.6 8.0 0.00 0.00 0.00 50 1432.2
20260506153750 15 210 1.6 8.0 0.00 0.00 0.00 50 1431.6
20260506153551 15 178 3.2 8.0 0.00 0.00 0.00 50 1430.9
20260506153350 15 225 3.2 8.0 0.00 0.00 0.00 50 1430.8
20260506153150 15 234 1.6 8.0 0.00 0.00 0.00 49 1430.5
20260506152950 15 222 3.2 8.0 0.00 0.00 0.00 49 1430.5
20260506152750 14 229 1.6 8.0 0.00 0.00 0.00 50 1430.1
20260506152550 14 216 3.2 9.7 0.00 0.00 0.00 50 1429.9
20260506152350 14 218 3.2 9.7 0.00 0.00 0.00 50 1430.4
20260506152150 14 215 3.2 9.7 0.00 0.00 0.00 49 1430.2
20260506151950 15 213 1.6 9.7 0.00 0.00 0.00 50 1430.4
20260506151750 15 201 3.2 9.7 0.00 0.00 0.00 48 1430.6
20260506151550 15 205 1.6 8.0 0.00 0.00 0.00 48 1432.2
20260506151150 15 181 1.6 6.4 0.00 0.00 0.00 48 1432.6
20260506150950 15 191 1.6 6.4 0.00 0.00 0.00 48 1432.9
20260506150750 16 201 1.6 6.4 0.00 0.00 0.00 47 1433.3
20260506150550 16 200 1.6 6.4 0.00 0.00 0.00 47 1434.0
20260506150350 16 166 1.6 6.4 0.00 0.00 0.00 47 1434.8
20260506150150 16 209 1.6 4.8 0.00 0.00 0.00 47 1434.9
20260506145950 16 182 1.6 4.8 0.00 0.00 0.00 46 1434.9
20260506145750 16 145 1.6 4.8 0.00 0.00 0.00 46 1435.4
20260506145550 17 168 1.6 4.8 0.00 0.00 0.00 45 1435.6
20260506145350 17 208 1.6 4.8 0.00 0.00 0.00 45 1436.0
20260506145150 17 195 1.6 6.4 0.00 0.00 0.00 45 1436.4
20260506144950 17 238 1.6 6.4 0.00 0.00 0.00 46 1436.6
20260506144750 17 196 1.6 6.4 0.00 0.00 0.00 45 1436.7
20260506144550 17 201 1.6 6.4 0.00 0.00 0.00 45 1436.7
20260506144350 17 221 3.2 6.4 0.00 0.00 0.00 45 1437.2
20260506144150 17 210 1.6 6.4 0.00 0.00 0.00 45 1437.7
20260506143950 17 236 1.6 6.4 0.00 0.00 0.00 44 1437.8
20260506143750 17 203 1.6 8.0 0.00 0.00 0.00 44 1438.2
20260506143550 18 210 1.6 8.0 0.00 0.00 0.00 44 1438.5
20260506143350 17 214 1.6 8.0 0.00 0.00 0.00 45 1438.2
20260506143151 17 238 3.2 8.0 0.00 0.00 0.00 44 1438.2
20260506142950 18 195 1.6 8.0 0.00 0.00 0.00 43 1439.1
20260506142750 18 207 1.6 8.0 0.00 0.00 0.00 43 1439.3
20260506142550 18 183 1.6 8.0 0.00 0.00 0.00 44 1438.8
20260506142350 17 197 1.6 8.0 0.00 0.00 0.00 44 1438.2
20260506142150 18 223 3.2 8.0 0.00 0.00 0.00 44 1438.8
20260506141950 18 192 1.6 8.0 0.00 0.00 0.00 44 1439.5
20260506141750 18 220 3.2 6.4 0.00 0.00 0.00 44 1439.8
20260506141550 18 213 3.2 6.4 0.00 0.00 0.00 43 1440.3
20260506141350 19 219 1.6 6.4 0.00 0.00 0.00 43 1440.9
20260506141150 18 195 1.6 6.4 0.00 0.00 0.00 43 1440.7
20260506140950 18 236 1.6 6.4 0.00 0.00 0.00 43 1440.9
20260506140750 19 213 1.6 8.0 0.00 0.00 0.00 43 1441.6
20260506140550 19 211 1.6 8.0 0.00 0.00 0.00 44 1441.5
20260506140350 18 212 1.6 8.0 0.00 0.00 0.00 45 1440.7
20260506140150 18 187 1.6 8.0 0.00 0.00 0.00 45 1439.8
20260506135950 18 206 1.6 8.0 0.00 0.00 0.00 45 1438.8
20260506135750 18 195 3.2 8.0 0.00 0.00 0.00 44 1439.2
20260506135550 18 218 1.6 6.4 0.00 0.00 0.00 44 1440.2
20260506135350 18 227 1.6 6.4 0.00 0.00 0.00 45 1439.9
20260506135150 18 214 3.2 8.0 0.00 0.00 0.00 45 1439.4
20260506134950 18 207 1.6 8.0 0.00 0.00 0.00 44 1439.5
20260506134750 18 218 1.6 8.0 0.00 0.00 0.00 44 1440.1
20260506134550 18 216 3.2 8.0 0.00 0.00 0.00 45 1439.8
20260506134350 18 201 1.6 8.0 0.00 0.00 0.00 45 1440.1
20260506134150 18 203 1.6 8.0 0.00 0.00 0.00 45 1440.1
20260506133950 18 216 1.6 8.0 0.00 0.00 0.00 46 1440.2
20260506133750 18 227 1.6 8.0 0.00 0.00 0.00 46 1439.2
20260506133550 18 224 3.2 8.0 0.00 0.00 0.00 45 1438.7
20260506133350 18 201 1.6 8.0 0.00 0.00 0.00 46 1439.0
20260506133150 18 213 3.2 8.0 0.00 0.00 0.00 45 1439.3
20260506132950 18 221 1.6 6.4 0.00 0.00 0.00 45 1439.3
20260506132750 18 187 1.6 9.7 0.00 0.00 0.00 46 1438.9
20260506132551 18 231 3.2 9.7 0.00 0.00 0.00 47 1438.3
20260506132350 17 195 1.6 9.7 0.00 0.00 0.00 47 1437.9
20260506132150 17 208 3.2 9.7 0.00 0.00 0.00 46 1437.7
20260506131950 18 193 1.6 9.7 0.00 0.00 0.00 45 1438.4
20260506131750 17 195 3.2 8.0 0.00 0.00 0.00 45 1438.0
20260506131551 17 206 3.2 8.0 0.00 0.00 0.00 45 1437.9
20260506131350 17 230 1.6 8.0 0.00 0.00 0.00 47 1437.7
20260506131150 17 209 3.2 8.0 0.00 0.00 0.00 47 1437.4
20260506130950 17 205 3.2 8.0 0.00 0.00 0.00 47 1437.2
20260506130750 17 212 1.6 8.0 0.00 0.00 0.00 47 1437.1
20260506130550 17 215 3.2 8.0 0.00 0.00 0.00 47 1436.9
20260506130350 17 229 3.2 8.0 0.00 0.00 0.00 48 1436.9
20260506130150 17 196 1.6 8.0 0.00 0.00 0.00 49 1436.7
20260506125950 17 213 3.2 8.0 0.00 0.00 0.00 49 1435.7
20260506125750 16 212 3.2 8.0 0.00 0.00 0.00 49 1434.9
20260506125550 16 201 3.2 9.7 0.00 0.00 0.00 50 1434.8
20260506125350 16 220 3.2 9.7 0.00 0.00 0.00 50 1434.4
20260506125150 16 214 1.6 9.7 0.00 0.00 0.00 50 1433.7
20260506124950 16 197 1.6 9.7 0.00 0.00 0.00 50 1433.0
20260506124750 15 221 3.2 9.7 0.00 0.00 0.00 49 1432.9
20260506124550 16 203 3.2 9.7 0.00 0.00 0.00 49 1433.3
20260506124350 16 216 3.2 9.7 0.00 0.00 0.00 49 1433.3
20260506124150 16 177 1.6 6.4 0.00 0.00 0.00 50 1433.5
20260506123951 16 201 1.6 6.4 0.00 0.00 0.00 50 1433.2
20260506123750 15 210 1.6 6.4 0.00 0.00 0.00 51 1432.7
20260506123550 15 204 3.2 9.7 0.00 0.00 0.00 50 1432.2
20260506123350 15 189 1.6 9.7 0.00 0.00 0.00 51 1431.8
20260506123150 15 215 3.2 9.7 0.00 0.00 0.00 50 1431.3
20260506122950 15 192 1.6 9.7 0.00 0.00 0.00 50 1431.5
20260506122750 15 186 1.6 8.0 0.00 0.00 0.00 51 1431.2
20260506122550 15 234 1.6 6.4 0.00 0.00 0.00 50 1431.1
20260506122350 15 197 3.2 8.0 0.00 0.00 0.00 51 1430.7
20260506122150 15 208 1.6 8.0 0.00 0.00 0.00 50 1430.4
20260506121950 15 214 3.2 8.0 0.00 0.00 0.00 50 1430.4
20260506121750 14 208 1.6 12.9 0.00 0.00 0.00 50 1430.2
20260506121550 14 199 1.6 12.9 0.00 0.00 0.00 50 1430.0
20260506121350 14 185 3.2 12.9 0.00 0.00 0.00 50 1429.8
20260506121150 14 222 3.2 12.9 0.00 0.00 0.00 50 1430.0
20260506120950 14 213 3.2 12.9 0.00 0.00 0.00 49 1429.9
20260506120750 14 222 1.6 9.7 0.00 0.00 0.00 50 1429.5
20260506120550 14 242 3.2 9.7 0.00 0.00 0.00 49 1429.1
20260506120350 14 223 3.2 9.7 0.00 0.00 0.00 48 1429.3
20260506120150 14 215 3.2 9.7 0.00 0.00 0.00 48 1429.0
20260506115950 13 183 1.6 9.7 0.00 0.00 0.00 48 1429.0
20260506115750 13 220 3.2 9.7 0.00 0.00 0.00 48 1428.5
20260506115550 13 218 3.2 9.7 0.00 0.00 0.00 49 1428.4
20260506115350 13 230 3.2 9.7 0.00 0.00 0.00 49 1428.2
20260506115150 13 221 3.2 12.9 0.00 0.00 0.00 49 1428.1
20260506114950 13 229 3.2 12.9 0.00 0.00 0.00 48 1428.3
20260506114750 13 218 3.2 12.9 0.00 0.00 0.00 47 1427.9
20260506114550 13 190 3.2 12.9 0.00 0.00 0.00 46 1428.1
20260506114350 13 213 3.2 9.7 0.00 0.00 0.00 46 1428.5
20260506114150 13 217 1.6 9.7 0.00 0.00 0.00 46 1428.2
20260506113951 13 202 3.2 9.7 0.00 0.00 0.00 46 1428.3
20260506113751 13 223 3.2 8.0 0.00 0.00 0.00 47 1428.5
20260506113550 13 228 3.2 8.0 0.00 0.00 0.00 46 1428.7
20260506113350 13 210 1.6 8.0 0.00 0.00 0.00 43 1428.5
20260506113150 13 194 1.6 9.7 0.00 0.00 0.00 42 1428.4
20260506112950 13 202 3.2 9.7 0.00 0.00 0.00 42 1428.4
20260506112750 13 230 3.2 9.7 0.00 0.00 0.00 42 1428.8
20260506112550 14 209 3.2 9.7 0.00 0.00 0.00 43 1429.4
20260506112350 14 190 1.6 6.4 0.00 0.00 0.00 41 1429.6
20260506112150 14 195 1.6 8.0 0.00 0.00 0.00 42 1429.3
20260506111950 13 222 3.2 8.0 0.00 0.00 0.00 42 1429.0
20260506111750 13 177 3.2 8.0 0.00 0.00 0.00 41 1428.7
20260506111550 13 204 1.6 8.0 0.00 0.00 0.00 42 1428.7
20260506111350 13 200 3.2 8.0 0.00 0.00 0.00 40 1428.5
20260506111150 13 233 1.6 8.0 0.00 0.00 0.00 41 1428.3
20260506110950 13 184 1.6 8.0 0.00 0.00 0.00 43 1428.2
20260506110750 13 186 3.2 8.0 0.00 0.00 0.00 42 1428.0
20260506110550 13 210 3.2 8.0 0.00 0.00 0.00 42 1427.9
20260506110350 13 205 1.6 8.0 0.00 0.00 0.00 41 1427.4
20260506110150 13 198 3.2 8.0 0.00 0.00 0.00 41 1427.3
20260506105950 13 178 3.2 9.7 0.00 0.00 0.00 41 1427.5
20260506105750 13 180 1.6 9.7 0.00 0.00 0.00 40 1427.5
20260506105550 13 176 3.2 9.7 0.00 0.00 0.00 38 1427.7
20260506105350 13 201 3.2 14.5 0.00 0.00 0.00 36 1428.0
20260506105150 13 189 1.6 14.5 0.00 0.00 0.00 35 1428.2
20260506104950 13 173 3.2 14.5 0.00 0.00 0.00 35 1428.1
20260506104750 13 183 4.8 14.5 0.00 0.00 0.00 31 1428.2
20260506104550 14 193 6.4 12.9 0.00 0.00 0.00 31 1429.0
20260506104350 15 187 3.2 11.3 0.00 0.00 0.00 33 1430.5
20260506104150 15 170 3.2 11.3 0.00 0.00 0.00 34 1430.6
20260506103950 15 193 3.2 11.3 0.00 0.00 0.00 35 1430.6
20260506103750 14 192 3.2 11.3 0.00 0.00 0.00 35 1430.0
20260506103550 14 209 3.2 12.9 0.00 0.00 0.00 34 1429.6
20260506103350 14 193 4.8 12.9 0.00 0.00 0.00 34 1429.2
20260506103150 13 180 3.2 17.7 0.00 0.00 0.00 36 1428.9
20260506102950 13 219 3.2 17.7 0.00 0.00 0.00 35 1428.2
20260506102550 12 179 3.2 17.7 0.00 0.00 0.00 34 1426.2
20260506102350 12 161 6.4 17.7 0.00 0.00 0.00 33 1426.4
20260506102151 12 184 6.4 16.1 0.00 0.00 0.00 34 1426.4
20260506101950 13 177 4.8 16.1 0.00 0.00 0.00 34 1426.7
20260506101750 13 211 4.8 17.7 0.00 0.00 0.00 34 1427.2
20260506101551 13 186 4.8 17.7 0.00 0.00 0.00 34 1427.8
20260506101350 13 161 1.6 17.7 0.00 0.00 0.00 35 1427.7
20260506101150 13 186 4.8 17.7 0.00 0.00 0.00 33 1427.3
20260506100950 13 183 3.2 17.7 0.00 0.00 0.00 33 1426.9
20260506100750 13 192 6.4 12.9 0.00 0.00 0.00 32 1427.3
20260506100550 13 195 3.2 12.9 0.00 0.00 0.00 34 1428.6
20260506100350 13 187 4.8 12.9 0.00 0.00 0.00 33 1428.5
20260506100150 13 162 3.2 12.9 0.00 0.00 0.00 32 1428.2
20260506095950 13 176 4.8 12.9 0.00 0.00 0.00 32 1428.2
20260506095750 13 165 3.2 12.9 0.00 0.00 0.00 33 1427.4
20260506095550 13 169 8.0 12.9 0.00 0.00 0.00 33 1427.4
20260506095350 13 178 3.2 12.9 0.00 0.00 0.00 34 1427.9
20260506095150 13 169 4.8 16.1 0.00 0.00 0.00 33 1428.2
20260506094951 13 189 3.2 16.1 0.00 0.00 0.00 35 1428.3
20260506094750 13 169 3.2 16.1 0.00 0.00 0.00 35 1427.5
20260506094551 13 190 6.4 16.1 0.00 0.00 0.00 34 1427.0
20260506094350 13 172 3.2 16.1 0.00 0.00 0.00 35 1427.2
20260506094150 13 163 4.8 16.1 0.00 0.00 0.00 34 1426.9
20260506093950 13 187 8.0 16.1 0.00 0.00 0.00 34 1426.8
20260506093750 13 175 4.8 16.1 0.00 0.00 0.00 35 1427.6
20260506093550 13 172 4.8 12.9 0.00 0.00 0.00 36 1427.2
20260506093350 13 176 3.2 19.3 0.00 0.00 0.00 37 1427.0
20260506093150 13 174 3.2 19.3 0.00 0.00 0.00 37 1427.4
20260506092950 13 214 4.8 19.3 0.00 0.00 0.00 37 1427.1
20260506092750 13 205 3.2 19.3 0.00 0.00 0.00 36 1426.9
20260506092550 13 182 3.2 17.7 0.00 0.00 0.00 36 1427.0
20260506092350 13 175 4.8 17.7 0.00 0.00 0.00 36 1427.3
20260506092150 13 202 3.2 12.9 0.00 0.00 0.00 36 1427.4
20260506091950 13 186 3.2 12.9 0.00 0.00 0.00 35 1427.7
20260506091751 13 185 3.2 12.9 0.00 0.00 0.00 35 1427.9
20260506091550 13 177 3.2 12.9 0.00 0.00 0.00 33 1427.5
20260506091350 13 170 3.2 12.9 0.00 0.00 0.00 34 1426.9
20260506091150 13 189 4.8 12.9 0.00 0.00 0.00 36 1426.6
20260506090950 12 168 3.2 16.1 0.00 0.00 0.00 37 1426.2
20260506090750 12 195 4.8 16.1 0.00 0.00 0.00 36 1426.1
20260506090550 12 202 4.8 16.1 0.00 0.00 0.00 35 1426.2
20260506090350 12 199 6.4 16.1 0.00 0.00 0.00 34 1426.4
20260506090150 13 190 3.2 12.9 0.00 0.00 0.00 34 1426.8
20260506085950 12 174 3.2 19.3 0.00 0.00 0.00 35 1426.2
20260506085750 12 194 4.8 19.3 0.00 0.00 0.00 34 1426.2
20260506085550 12 158 3.2 19.3 0.00 0.00 0.00 36 1426.0
20260506085350 12 171 4.8 19.3 0.00 0.00 0.00 36 1425.3
20260506085150 12 193 4.8 19.3 0.00 0.00 0.00 37 1424.8
20260506084950 12 197 4.8 14.5 0.00 0.00 0.00 37 1424.6
20260506084750 12 193 4.8 12.9 0.00 0.00 0.00 38 1424.8
20260506084550 12 192 3.2 11.3 0.00 0.00 0.00 40 1424.6
20260506084350 12 185 4.8 11.3 0.00 0.00 0.00 41 1424.2
20260506084150 12 223 4.8 11.3 0.00 0.00 0.00 42 1423.9
20260506083950 12 203 4.8 11.3 0.00 0.00 0.00 43 1423.9
20260506083750 12 179 4.8 11.3 0.00 0.00 0.00 44 1424.1
20260506083550 12 194 3.2 8.0 0.00 0.00 0.00 44 1424.2
20260506083350 12 175 4.8 8.0 0.00 0.00 0.00 45 1424.2
20260506083150 12 187 1.6 9.7 0.00 0.00 0.00 46 1424.4
20260506082950 12 202 1.6 9.7 0.00 0.00 0.00 47 1424.2
20260506082750 12 190 3.2 9.7 0.00 0.00 0.00 47 1424.1
20260506082550 12 205 3.2 11.3 0.00 0.00 0.00 47 1424.2
20260506082350 12 200 1.6 11.3 0.00 0.00 0.00 47 1424.3
20260506082150 12 182 3.2 11.3 0.00 0.00 0.00 46 1424.1
20260506081950 12 156 3.2 11.3 0.00 0.00 0.00 47 1424.0
20260506081750 12 194 3.2 11.3 0.00 0.00 0.00 50 1424.2
20260506081550 11 237 1.6 6.4 0.00 0.00 0.00 51 1423.6
20260506081350 11 211 1.6 6.4 0.00 0.00 0.00 49 1423.1
20260506081150 11 187 3.2 6.4 0.00 0.00 0.00 48 1423.1
20260506080950 11 174 1.6 6.4 0.00 0.00 0.00 51 1423.5
20260506080750 12 231 1.6 11.3 0.00 0.00 0.00 51 1423.8
20260506080550 12 209 1.6 11.3 0.00 0.00 0.00 51 1423.9
20260506080350 12 232 1.6 11.3 0.00 0.00 0.00 52 1423.9
20260506080150 11 198 3.2 11.3 0.00 0.00 0.00 50 1423.6
20260506073350 11 121 1.6 6.4 0.00 0.00 0.00 52 1421.9
20260506073150 11 138 1.6 8.0 0.00 0.00 0.00 53 1421.8
20260506072950 11 137 1.6 8.0 0.00 0.00 0.00 53 1421.4
20260506072750 11 124 3.2 8.0 0.00 0.00 0.00 53 1421.3
20260506072550 11 115 0.0 8.0 0.00 0.00 0.00 53 1421.2
20260506072350 10 99 3.2 8.0 0.00 0.00 0.00 53 1421.0
20260506072150 10 131 1.6 8.0 0.00 0.00 0.00 54 1420.6
20260506071950 10 111 3.2 8.0 0.00 0.00 0.00 55 1420.4
20260506071750 10 127 1.6 8.0 0.00 0.00 0.00 57 1420.7
20260506071550 10 124 1.6 8.0 0.00 0.00 0.00 58 1421.0
20260506071350 10 113 1.6 8.0 0.00 0.00 0.00 58 1420.7
20260506071150 10 96 3.2 8.0 0.00 0.00 0.00 59 1420.6
20260506070950 10 109 1.6 6.4 0.00 0.00 0.00 60 1420.5
20260506070751 10 140 1.6 6.4 0.00 0.00 0.00 61 1420.8
20260506070550 10 76 1.6 6.4 0.00 0.00 0.00 61 1420.6
20260506070350 10 96 1.6 6.4 0.00 0.00 0.00 61 1420.1
20260506070150 10 116 1.6 6.4 0.00 0.00 0.00 60 1419.8
20260506062350 8 114 1.6 8.0 0.00 0.00 0.00 64 1415.9
20260506062150 8 117 1.6 8.0 0.00 0.00 0.00 65 1415.9
20260506061950 8 121 1.6 9.7 0.00 0.00 0.00 65 1415.7
20260506061750 8 131 1.6 9.7 0.00 0.00 0.00 65 1415.6
20260506061550 8 144 1.6 9.7 0.00 0.00 0.00 65 1415.2